KI4SSU Weather Reports


Display with metric or nautical units.
time (UTC)temp
F
wind
direction
speed
MPH
gust
MPH
rain 1hr
in
rain 24hr
in
rain mn
in
humidity
%
barometer
mb
20260903041422 85 111 1.0 3.0 0.00 0.00 0.00
20260903035922 86 55 2.0 0.0 0.00 0.00 0.00
20260903034422 86 124 1.0 4.0 0.00 0.00 0.00
20260903032422 87 15 3.0 3.0 0.00 0.00 0.00
20260903031922 87 90 2.0 4.0 0.00 0.00 0.00
20260903030422 88 107 1.0 5.0 0.00 0.00 0.00
20260903024422 89 110 2.0 7.0 0.00 0.00 0.00
20260903023922 90 173 3.0 6.0 0.00 0.00 0.00
20260903015922 91 277 3.0 5.0 0.00 0.00 0.00
20260903015422 91 169 3.0 4.0 0.00 0.00 0.00
20260903012422 92 162 3.0 3.0 0.00 0.00 0.00
20260902233422 100 162 2.0 5.0 0.00 0.00 0.00
20260902222923 103 70 3.0 6.0 0.00 0.00 0.00
20260902210424 104 15 3.0 5.0 0.00 0.00 0.00
20260902195424 103 75 2.0 6.0 0.00 0.00 0.00
20260902185424 105 331 0.0 6.0 0.00 0.00 0.00
20260902184923 105 28 1.0 3.0 0.00 0.00 0.00
20260902183424 104 4 1.0 1.0 0.00 0.00 0.00
20260902182424 104 334 4.0 2.0 0.00 0.00 0.00
20260902181424 103 149 2.0 6.0 0.00 0.00 0.00
20260902175924 100 58 2.0 2.0 0.00 0.00 0.00
20260902175424 101 182 1.0 4.0 0.00 0.00 0.00
20260902174924 101 66 2.0 1.0 0.00 0.00 0.00
20260902173924 100 146 2.0 1.0 0.00 0.00 0.00
20260902173424 97 158 2.0 3.0 0.00 0.00 0.00
20260902172424 98 56 3.0 6.0 0.00 0.00 0.00
20260902170924 101 99 3.0 4.0 0.00 0.00 0.00
20260902163425 95 115 3.0 3.0 0.00 0.00 0.00
20260902162424 95 68 0.0 4.0 0.00 0.00 0.00
20260902133925 83 237 1.0 6.0 0.00 0.00 0.00
20260902131425 82 100 2.0 3.0 0.00 0.00 0.00
20260902125925 81 84 0.0 0.0 0.00 0.00 0.00
20260902123925 80 128 0.0 1.0 0.00 0.00 0.00
20260902063926 86 151 0.0 3.0 0.00 0.00 0.00
20260902060927 85 184 2.0 4.0 0.00 0.00 0.00
20260902054927 86 155 0.0 4.0 0.00 0.00 0.00
20260902045426 88 211 0.0 8.0 0.00 0.00 0.00